Skip Page Navigation
NASA JPL Caltech
NASA Logo - Jet Propulsion Laboratory + View the NASA Portal
+ Center for Near-Earth Object Studies
JPL Home Earth Solar System Stars & Galaxies Technology
JPL Solar System Dynamics
BODIES ORBITS EPHEMERIDES TOOLS PHYSICAL DATA DISCOVERY FAQ SITE MAP
IMPORTANT: The SSD Announcement email list is now available. Major changes are coming in the near future, including possible hostname and/or URL changes. To be notified of such changes, subscribe to this email list.

Please visit this page for more details.


JPL Small-Body Database Browser
Search: [ help ]  
1388 Aphrodite (1935 SS)
Classification: Main-belt Asteroid          SPK-ID: 2001388
Ephemeris | Orbit Diagram | Orbital Elements | Mission Design | Physical Parameters | Discovery Circumstances | Close-Approach Data ]

[ hide orbit diagram ]

For accurate long-term ephemerides, please instead use our Horizons system.This orbit viewer was implemented using two-body methods, and hence should not be used for determining accurate long-term trajectories (over several years or decades) or planetary encounter circumstances.


[ revert to old Java-based viewer ]

Orbital Elements at Epoch 2458600.5 (2019-Apr-27.0) TDB
Reference: JPL 35 (heliocentric ecliptic J2000)
 Element Value Uncertainty (1-sigma)   Units 
e .08960779027489486 3.0487e-08  
a 3.019023603495906 1.2823e-08 au
q 2.748495569598887 9.2049e-08 au
i 11.19217094054222 4.1777e-06 deg
node 54.35942554856614 1.8495e-05 deg
peri 257.0286953676307 3.0817e-05 deg
M 35.09168386899853 2.5421e-05 deg
tp 2458413.733105703182
(2018-Oct-22.23310570)
0.00013518 TDB
period 1916.011844796475
5.25
1.2207e-05
3.342e-08
d
yr
n .1878902789550554 1.1971e-09 deg/d
Q 3.289551637392925 1.3972e-08 au
  Orbit Determination Parameters
   # obs. used (total)      2748  
   data-arc span      30746 days (84.18 yr)  
   first obs. used      1935-09-24  
   last obs. used      2019-11-28  
   planetary ephem.      DE431  
   SB-pert. ephem.      SB431-N16  
   condition code      0  
   norm. resid. RMS      .43579  
   source      ORB  
   producer      Otto Matic  
   solution date      2019-Dec-03 20:21:25  

Additional Information
 Earth MOID = 1.76107 au 
 Jupiter MOID = 1.94575 au 
 T_jup = 3.212 
[ show covariance matrix ]

Ephemeris | Orbit Diagram | Orbital Elements | Mission Design | Physical Parameters | Discovery Circumstances | Close-Approach Data ]

Physical Parameter Table
Parameter Symbol Value Units Sigma Reference Notes
absolute magnitude H 10.9   n/a MPO416720  
diameter diameter 21.355 km 0.282 urn:nasa:pds:neowise_diameters_albedos::2.0[mainbelt] (http://adsabs.harvard.edu/abs/2014ApJ...791..121M)  
rotation period rot_per 11.9432 h n/a LCDB (Rev. 2019-January); Warner et al., 2009 Published Reference List:
[Ivarsen, K.; Willis, S.; Ingleby, L.; Matthews, D.; Simet, M. (2004) Minor Planet Bull. 31, 29-33.]
[Behrend, R. (2006) Observatoire de Geneve web site, http://obswww.unige.ch/~behrend/page_cou.html]
[Oey, J.; Krajewski, R. (2008) Minor Planet Bull. 35, 47-48.]
[Hanus, J.; Delbo, M.; Ali-Lagoa, V.; Bolin, B.; et al. (2016) Astron. Astrophys., submitted.]
[Hanus, J.; Delbo, M.; Ali-Lagoa, V.; Bolin, B.; et al. (2018) Icarus 299, 84-96.]
geometric albedo albedo 0.144   0.021 urn:nasa:pds:neowise_diameters_albedos::2.0[mainbelt] (http://adsabs.harvard.edu/abs/2012ApJ...759L...8M)  
B-V BV 0.860   0.030 EAR-A-5-DDR-UBV-MEAN-VALUES-V1.2 #obs=1; phase=15.04 deg.
U-B UB 0.490   0.040 EAR-A-5-DDR-UBV-MEAN-VALUES-V1.2 #obs=1; phase=15.04 deg.

1388 Aphrodite (1935 SS)          Discovered 1935-Sep-24 by Delporte, E. at Uccle
Reference: DISCOVERY.DBLast Updated: 2003-08-29

[ show close-approach data ]
Alternate Designations
 1935 SS = A914 TC 
Ephemeris | Orbit Diagram | Orbital Elements | Mission Design | Physical Parameters | Discovery Circumstances | Close-Approach Data ]
ABOUT SSD CREDITS/AWARDS PRIVACY/COPYRIGHT GLOSSARY LINKS
FirstGov 2019-Dec-06 04:08 UT
(server date/time)  
NASA Home Page
Site Manager:   Ryan S. Park
Webmaster  Alan B. Chamberlin